EN

Hourly Weather Altamira

Today, 16 January, Saturday

Time Temperature Precipitation Wind Pressure Humidity
00:00 +20°C° 0 mm 1 mps 673 mmHg 94%
01:00 +18°C° 0 mm 0 mps 672 mmHg 94%
02:00 +18°C° 0 mm 0 mps 672 mmHg 94%
03:00 +18°C° 0 mm 0 mps 672 mmHg 94%
04:00 +18°C° 0 mm 0 mps 672 mmHg 94%
05:00 +18°C° 0 mm 0 mps 672 mmHg 94%
06:00 +18°C° 0 mm 0 mps 673 mmHg 93%
07:00 +18°C° 0 mm 0 mps 673 mmHg 93%
08:00 +22°C° 0 mm 1 mps 674 mmHg 87%
09:00 +24°C° 0 mm 1 mps 674 mmHg 80%
10:00 +26°C° 0 mm 1 mps 675 mmHg 74%
11:00 +27°C° 0.2 mm 1 mps 675 mmHg 70%
12:00 +28°C° 0.2 mm 1 mps 674 mmHg 66%
13:00 +29°C° 0.2 mm 2 mps 673 mmHg 63%
14:00 +29°C° 0.2 mm 1 mps 673 mmHg 63%
15:00 +29°C° 0.2 mm 1 mps 672 mmHg 64%
16:00 +28°C° 0.2 mm 1 mps 671 mmHg 65%
17:00 +26°C° 0.1 mm 1 mps 671 mmHg 73%
18:00 +24°C° 0.1 mm 1 mps 671 mmHg 82%
19:00 +20°C° 0.1 mm 0 mps 671 mmHg 90%
20:00 +20°C° 0 mm 0 mps 672 mmHg 91%
21:00 +20°C° 0 mm 0 mps 673 mmHg 92%
22:00 +19°C° 0 mm 0 mps 673 mmHg 93%
23:00 +19°C° 0 mm 0 mps 673 mmHg 93%

Tomorrow, 17 January, Sunday

Time Temperature Precipitation Wind Pressure Humidity
00:00 +18°C° 0 mm 0 mps 673 mmHg 94%
01:00 +18°C° 0 mm 0 mps 672 mmHg 94%
02:00 +18°C° 0 mm 0 mps 672 mmHg 94%
03:00 +18°C° 0 mm 0 mps 672 mmHg 94%
04:00 +18°C° 0 mm 0 mps 672 mmHg 94%
05:00 +18°C° 0 mm 0 mps 672 mmHg 93%
06:00 +20°C° 0 mm 1 mps 673 mmHg 92%
07:00 +21°C° 0 mm 1 mps 673 mmHg 90%
08:00 +23°C° 0 mm 1 mps 673 mmHg 84%
09:00 +24°C° 0 mm 1 mps 674 mmHg 77%
10:00 +26°C° 0 mm 1 mps 674 mmHg 71%
11:00 +27°C° 0.1 mm 1 mps 674 mmHg 67%
12:00 +28°C° 0.1 mm 1 mps 674 mmHg 63%
13:00 +29°C° 0.1 mm 1 mps 673 mmHg 59%
14:00 +29°C° 0.4 mm 1 mps 673 mmHg 61%
15:00 +28°C° 0.4 mm 1 mps 672 mmHg 63%
16:00 +28°C° 0.4 mm 1 mps 671 mmHg 66%
17:00 +26°C° 0.3 mm 1 mps 671 mmHg 74%
18:00 +24°C° 0.3 mm 1 mps 671 mmHg 82%
19:00 +20°C° 0.3 mm 0 mps 671 mmHg 90%
20:00 +20°C° 0.1 mm 0 mps 672 mmHg 90%
21:00 +19°C° 0.1 mm 0 mps 672 mmHg 90%
22:00 +21°C° 0.1 mm 1 mps 673 mmHg 90%
23:00 +21°C° 0 mm 1 mps 673 mmHg 90%

Day after tomorrow, 18 January, Monday

Time Temperature Precipitation Wind Pressure Humidity
00:00 +20°C° 0 mm 1 mps 672 mmHg 90%
01:00 +20°C° 0 mm 1 mps 672 mmHg 90%
02:00 +18°C° 0 mm 0 mps 672 mmHg 90%
03:00 +18°C° 0 mm 0 mps 672 mmHg 90%
04:00 +17°C° 0 mm 0 mps 671 mmHg 90%
05:00 +18°C° 0 mm 0 mps 672 mmHg 89%
06:00 +18°C° 0 mm 0 mps 673 mmHg 89%
07:00 +18°C° 0 mm 0 mps 673 mmHg 88%
08:00 +20°C° 0.3 mm 0 mps 674 mmHg 84%
09:00 +21°C° 0.3 mm 0 mps 674 mmHg 81%
10:00 +23°C° 0.3 mm 0 mps 675 mmHg 77%
11:00 +26°C° 0.6 mm 1 mps 674 mmHg 75%
12:00 +27°C° 0.6 mm 1 mps 674 mmHg 72%
13:00 +28°C° 0.6 mm 1 mps 673 mmHg 69%
14:00 +28°C° 0.8 mm 1 mps 673 mmHg 69%
15:00 +28°C° 0.8 mm 1 mps 672 mmHg 69%
16:00 +28°C° 0.8 mm 1 mps 672 mmHg 69%
17:00 +26°C° 0.6 mm 1 mps 672 mmHg 77%
18:00 +22°C° 0.6 mm 0 mps 672 mmHg 84%
19:00 +20°C° 0.6 mm 0 mps 672 mmHg 92%
20:00 +20°C° 0.4 mm 0 mps 672 mmHg 92%
21:00 +21°C° 0.4 mm 1 mps 673 mmHg 93%
22:00 +21°C° 0.4 mm 1 mps 673 mmHg 94%
23:00 +21°C° 0.1 mm 1 mps 673 mmHg 94%

19 January, Tuesday

Time Temperature Precipitation Wind Pressure Humidity
00:00 +20°C° 0.1 mm 1 mps 673 mmHg 94%
01:00 +20°C° 0.1 mm 1 mps 673 mmHg 93%
02:00 +20°C° 0.2 mm 1 mps 673 mmHg 93%
03:00 +20°C° 0.2 mm 1 mps 672 mmHg 93%
04:00 +18°C° 0.2 mm 0 mps 672 mmHg 93%
05:00 +18°C° 0.1 mm 0 mps 673 mmHg 93%
06:00 +18°C° 0.1 mm 0 mps 673 mmHg 92%
07:00 +18°C° 0.1 mm 0 mps 674 mmHg 92%
08:00 +21°C° 0.2 mm 0 mps 674 mmHg 85%
09:00 +23°C° 0.2 mm 0 mps 675 mmHg 79%
10:00 +25°C° 0.2 mm 0 mps 675 mmHg 73%
11:00 +27°C° 0.4 mm 1 mps 675 mmHg 69%
12:00 +28°C° 0.4 mm 1 mps 674 mmHg 65%
13:00 +29°C° 0.4 mm 1 mps 674 mmHg 60%
14:00 +29°C° 0.3 mm 1 mps 673 mmHg 64%
15:00 +28°C° 0.3 mm 1 mps 673 mmHg 67%
16:00 +27°C° 0.3 mm 1 mps 672 mmHg 70%
17:00 +25°C° 0.3 mm 1 mps 672 mmHg 78%
18:00 +24°C° 0.3 mm 1 mps 672 mmHg 85%
19:00 +22°C° 0.3 mm 1 mps 672 mmHg 93%
20:00 +21°C° 0 mm 1 mps 673 mmHg 93%
21:00 +21°C° 0 mm 1 mps 673 mmHg 93%
22:00 +20°C° 0 mm 1 mps 673 mmHg 94%
23:00 +20°C° 0 mm 1 mps 673 mmHg 94%

20 January, Wednesday

Time Temperature Precipitation Wind Pressure Humidity
00:00 +20°C° 0 mm 1 mps 673 mmHg 93%
01:00 +20°C° 0 mm 1 mps 673 mmHg 93%
02:00 +20°C° 0 mm 1 mps 672 mmHg 93%
03:00 +19°C° 0 mm 1 mps 672 mmHg 93%
04:00 +19°C° 0 mm 1 mps 672 mmHg 93%
05:00 +20°C° 0 mm 1 mps 672 mmHg 92%
06:00 +20°C° 0 mm 1 mps 673 mmHg 91%
07:00 +20°C° 0 mm 1 mps 673 mmHg 90%
08:00 +23°C° 0 mm 1 mps 674 mmHg 80%
09:00 +25°C° 0 mm 1 mps 675 mmHg 70%
10:00 +28°C° 0 mm 1 mps 675 mmHg 60%
11:00 +28°C° 0 mm 1 mps 675 mmHg 56%
12:00 +29°C° 0 mm 1 mps 674 mmHg 53%
13:00 +30°C° 0 mm 1 mps 673 mmHg 50%
14:00 +30°C° 0 mm 1 mps 673 mmHg 54%
15:00 +29°C° 0 mm 1 mps 672 mmHg 57%
16:00 +28°C° 0 mm 2 mps 671 mmHg 61%
17:00 +26°C° 0 mm 1 mps 671 mmHg 71%
18:00 +24°C° 0 mm 1 mps 672 mmHg 81%
19:00 +22°C° 0 mm 1 mps 672 mmHg 90%
20:00 +22°C° 0.1 mm 1 mps 672 mmHg 90%
21:00 +22°C° 0.1 mm 1 mps 673 mmHg 91%
22:00 +21°C° 0.1 mm 1 mps 673 mmHg 91%
23:00 +21°C° 0 mm 1 mps 673 mmHg 91%

21 January, Thursday

Time Temperature Precipitation Wind Pressure Humidity
00:00 +21°C° 0 mm 1 mps 673 mmHg 90%
01:00 +21°C° 0 mm 1 mps 673 mmHg 89%
02:00 +21°C° 0.1 mm 1 mps 673 mmHg 90%
03:00 +21°C° 0.1 mm 1 mps 672 mmHg 91%
04:00 +20°C° 0.1 mm 1 mps 672 mmHg 92%
05:00 +21°C° 0 mm 1 mps 673 mmHg 91%
06:00 +21°C° 0 mm 1 mps 673 mmHg 91%
07:00 +21°C° 0 mm 1 mps 673 mmHg 90%
08:00 +23°C° 0.1 mm 1 mps 674 mmHg 82%
09:00 +25°C° 0.1 mm 1 mps 675 mmHg 74%
10:00 +28°C° 0.1 mm 1 mps 675 mmHg 67%
11:00 +28°C° 0.5 mm 1 mps 674 mmHg 66%
12:00 +28°C° 0.5 mm 1 mps 674 mmHg 66%
13:00 +29°C° 0.5 mm 1 mps 673 mmHg 66%
14:00 +28°C° 0.9 mm 1 mps 673 mmHg 70%
15:00 +28°C° 0.9 mm 1 mps 672 mmHg 74%
16:00 +27°C° 0.9 mm 1 mps 671 mmHg 77%
17:00 +25°C° 0.9 mm 1 mps 672 mmHg 83%
18:00 +24°C° 0.9 mm 1 mps 672 mmHg 88%
19:00 +22°C° 0.9 mm 1 mps 672 mmHg 94%
20:00 +22°C° 0.2 mm 1 mps 672 mmHg 93%
21:00 +21°C° 0.2 mm 1 mps 673 mmHg 93%
22:00 +21°C° 0.2 mm 1 mps 674 mmHg 93%
23:00 +21°C° 0 mm 1 mps 673 mmHg 93%
Show more